[[{"header":{"parameterUnit":"m.s-1","parameterCategory":2,"la1":30.2991,"la2":30.254,"lo1":-89.0895,"lo2":-89.0444,"dy":0.0017,"dx":0.0017,"nx":28,"ny":28,"refTime":"2023-03-30T21:00:00:Z","depth":"0","parameterNumber":2,"parameterNumberName":"U-component_of_CURRENTS"},"data":[0,0,0,0,0,0,0,0,0,0,0,0,0,0,0,0,0,0,0,0,0,0,0,0,0,0,0,0,0,0,0,0,0,0,0,0,0,0,0,0,0,0,0,0,0,0,0,0,0,0,0,0,0,0,0,0,0,0,0.1767,0.1767,0,0.1736,0.1736,0.1735,0.1716,0.1716,0.1717,0.1717,0.1672,0.1671,0.167,0,0,0,0,0,0,0,0,0,0,0,0,0,0.1779,0.1779,0.1767,0.1767,0.1767,0.1737,0.1736,0.1735,0.1716,0.1716,0.1717,0.1717,0.1673,0.1671,0.167,0,0,0,0,0,0,0,0,0,0,0,0,0,0.1761,0.1779,0.1767,0.1756,0.1755,0.1737,0.1736,0.1735,0.1716,0.1716,0.1717,0.1717,0.1673,0.1671,0.167,0.1653,0,0,0.1664,0.1663,0,0,0,0,0,0,0,0,0.1762,0.176,0.1758,0.1757,0.1755,0.1733,0.1724,0.1708,0.1716,0.1728,0.1717,0.1717,0.1693,0.1689,0.168,0.1651,0.1649,0.1663,0.1662,0.1661,0.1661,0,0,0,0,0,0,0,0.1763,0.1761,0.1752,0.1758,0.1756,0.1742,0.1739,0.172,0.1707,0.1727,0.1726,0.1727,0.1692,0.1681,0.1678,0.1649,0.1663,0.1662,0.166,0.166,0.1686,0.1687,0,0,0,0,0,0,0.1774,0.1763,0.1753,0.1752,0.1762,0.1742,0.1739,0.1738,0.1708,0.1704,0.1727,0.1726,0.1685,0.1681,0.1677,0.1725,0.1661,0.166,0.1658,0.1684,0.1686,0.1688,0,0,0,0,0,0,0.1774,0.1773,0.1755,0.1759,0.1756,0.1742,0.174,0.1737,0.1735,0.1708,0.1704,0.1729,0.1685,0.168,0.167,0.172,0.1659,0.1657,0.1681,0.1684,0.1687,0.1777,0,0,0,0,0,0,0.1774,0.1773,0.1776,0.1759,0.1756,0.1759,0.174,0.1736,0.1736,0.1735,0.1709,0.1704,0.1684,0.1673,0.1668,0.1717,0.1655,0.1679,0.1683,0.1686,0.1771,0.1782,0.1791,0,0,0,0,0,0.1775,0.1779,0.1777,0.1776,0.176,0.176,0.1757,0.1745,0.1736,0.1742,0.1722,0.1706,0.1693,0.1672,0.1665,0.1715,0.1677,0.1682,0.1686,0.1767,0.178,0.1791,0,0,0,0,0,0,0.1777,0.1777,0.1774,0.1775,0.1776,0.1758,0.176,0.1752,0.1739,0.1737,0.1708,0.1703,0.1726,0.17,0.1677,0.1736,0.1691,0.1694,0.1755,0.1767,0.1777,0.1808,0.1654,0,0,0,0,0,0.1782,0.1788,0.1785,0.1786,0.179,0.1776,0.1774,0.1769,0.1755,0.175,0.173,0.1722,0.1737,0.1733,0.1732,0.1741,0.1773,0.1777,0.1787,0.1795,0.1819,0.1913,0.1935,0.1702,0.1702,0.1702,0,0,0.178,0.1783,0.1784,0.1788,0.1785,0.1795,0.1775,0.1779,0.1792,0.1747,0.1752,0.1753,0.1748,0.1776,0.1785,0.1758,0.1879,0.1801,0.1808,0.1827,0.192,0.1943,0.1964,0.1705,0.1704,0.1704,0,0,0.1783,0.1788,0.1796,0.1804,0.1811,0.181,0.1816,0.1807,0.1812,0.1811,0.1809,0.1843,0.1816,0.1854,0.1863,0.1927,0.1934,0.1922,0.199,0.2082,0.2102,0.2121,0.2196,0.222,0.192,0.1921,0.1921,0,0.1783,0.1789,0.1798,0.1811,0.1822,0.1822,0.1836,0.1845,0.1833,0.1859,0.1824,0.1876,0.1869,0.1954,0.1978,0.1956,0.1994,0.1942,0.2098,0.2116,0.2134,0.2206,0.2232,0.1925,0.1925,0.1924,0.1924,0,0.1791,0.1801,0.1808,0.183,0.185,0.1858,0.1882,0.1902,0.1903,0.1921,0.1991,0.1991,0.2036,0.2044,0.2022,0.2153,0.2137,0.2106,0.207,0.2163,0.2233,0.2258,0.1932,0.1931,0.1929,0.1928,0,0,0.1768,0.1805,0.1806,0.1822,0.1859,0.1872,0.1924,0.1976,0.202,0.2038,0.2105,0.2161,0.2185,0.2202,0.2206,0.2273,0.2427,0.2239,0.2242,0.232,0.2626,0.2588,0.2612,0.2419,0.2424,0.2428,0.2627,0,0.1766,0.1791,0.1819,0.185,0.1867,0.191,0.1955,0.2014,0.2058,0.2121,0.219,0.2243,0.224,0.2262,0.2351,0.2392,0.2497,0.2375,0.2519,0.2524,0.2485,0.2642,0.2597,0.2769,0.2651,0.2656,0.2659,0,0.1757,0.1779,0.1808,0.1865,0.1878,0.1902,0.1996,0.2038,0.2154,0.2193,0.2302,0.234,0.2472,0.2429,0.263,0.2547,0.2619,0.2651,0.2659,0.2613,0.2534,0.2656,0.2819,0.2751,0.2697,0.2694,0.2691,0,0.1726,0.177,0.1793,0.1809,0.1876,0.1909,0.1949,0.2059,0.2122,0.2247,0.2308,0.2461,0.2527,0.2655,0.2754,0.2699,0.2952,0.2881,0.2935,0.2931,0.292,0.2907,0.3042,0.3068,0.3068,0.3067,0.3066,0,0.1708,0.1723,0.1773,0.1782,0.1823,0.1883,0.1954,0.2019,0.2142,0.2235,0.2346,0.2444,0.2586,0.2736,0.2818,0.2975,0.3032,0.3002,0.3005,0.2946,0.2934,0.2889,0.281,0.3074,0.3073,0.3071,0.307,0,0.167,0.1698,0.1721,0.1782,0.1804,0.183,0.1937,0.1998,0.2112,0.2238,0.2282,0.2468,0.265,0.2808,0.3004,0.3051,0.3119,0.3235,0.3147,0.3136,0.3059,0.2985,0.3012,0.2926,0.3318,0.3319,0.332,0,0.1652,0.166,0.1707,0.1721,0.1743,0.1799,0.1846,0.1964,0.2041,0.225,0.2308,0.252,0.2665,0.2953,0.3092,0.3283,0.3177,0.332,0.321,0.3104,0.3026,0.2868,0.278,0.3239,0.3238,0.3238,0.3238,0,0.1618,0.1629,0.1651,0.1685,0.1716,0.1768,0.1841,0.1894,0.2047,0.2162,0.2322,0.245,0.2743,0.2913,0.3157,0.3258,0.3153,0.3317,0.3259,0.3038,0.2829,0.2729,0.3036,0.3237,0.3237,0.3237,0.3237,0.3237,0.1589,0.1596,0.1623,0.165,0.1686,0.1723,0.1743,0.184,0.1946,0.2101,0.2249,0.2427,0.273,0.3056,0.3139,0.3247,0.3144,0.32,0.3144,0.3012,0.2854,0.3144,0.3296,0.3297,0.3297,0.3298,0.3298,0,0.1562,0.1578,0.1595,0.1622,0.1636,0.1674,0.1737,0.1751,0.1829,0.2019,0.2148,0.2467,0.269,0.2936,0.3156,0.3098,0.2977,0.3037,0.283,0.2768,0.3117,0.3037,0.3077,0.3077,0.3077,0.3077,0.3077,0.3077,0.1551,0.1554,0.1563,0.1563,0.1581,0.158,0.1591,0.1622,0.1727,0.1901,0.2089,0.2261,0.2625,0.2926,0.2994,0.296,0.2735,0.2659,0.2583,0.2857,0.2867,0.2877,0.2788,0.2774,0.2774,0.2182,0.2177,0.2174]},{"header":{"parameterUnit":"m.s-1","parameterCategory":2,"la1":30.2991,"la2":30.254,"lo1":-89.0895,"lo2":-89.0444,"dy":0.0017,"dx":0.0017,"nx":28,"ny":28,"refTime":"2023-03-30T21:00:00:Z","depth":"0","parameterNumber":3,"parameterNumberName":"V-component_of_CURRENTS"},"data":[0,0,0,0,0,0,0,0,0,0,0,0,0,0,0,0,0,0,0,0,0,0,0,0,0,0,0,0,0,0,0,0,0,0,0,0,0,0,0,0,0,0,0,0,0,0,0,0,0,0,0,0,0,0,0,0,0,0,-0.0041,-0.0041,0,-0.011,-0.0111,-0.0111,-0.0141,-0.0141,-0.0141,-0.0141,-0.0193,-0.0195,-0.0196,0,0,0,0,0,0,0,0,0,0,0,0,0,0.003,0.0029,-0.004,-0.0041,-0.0042,-0.011,-0.0111,-0.0112,-0.0141,-0.0141,-0.0141,-0.0141,-0.0193,-0.0195,-0.0196,0,0,0,0,0,0,0,0,0,0,0,0,0,-0.0017,0.0029,-0.004,-0.0064,-0.0067,-0.0109,-0.0111,-0.0112,-0.0141,-0.0141,-0.0141,-0.0141,-0.0192,-0.0194,-0.0197,-0.0217,0,0,-0.0204,-0.0205,0,0,0,0,0,0,0,0,-0.0014,-0.0019,-0.006,-0.0063,-0.0066,-0.0116,-0.0105,-0.0146,-0.0141,-0.0114,-0.0141,-0.014,-0.0165,-0.017,-0.0185,-0.0219,-0.0221,-0.0204,-0.0205,-0.0206,-0.0207,0,0,0,0,0,0,0,-0.0011,-0.0017,-0.0069,-0.0061,-0.0065,-0.0084,-0.009,-0.0113,-0.0141,-0.0116,-0.0119,-0.0125,-0.0167,-0.0183,-0.0186,-0.0222,-0.0204,-0.0206,-0.0208,-0.0208,-0.0207,-0.0205,0,0,0,0,0,0,0.0001,-0.0014,-0.0066,-0.0071,-0.0038,-0.0085,-0.0092,-0.0101,-0.0141,-0.0147,-0.0125,-0.0126,-0.0179,-0.0184,-0.0188,-0.0158,-0.0206,-0.0209,-0.021,-0.0208,-0.0206,-0.0205,0,0,0,0,0,0,0.0003,-0.0003,-0.0064,-0.0043,-0.0052,-0.0087,-0.0096,-0.0102,-0.0116,-0.0148,-0.0153,-0.0132,-0.0179,-0.0185,-0.0199,-0.0162,-0.021,-0.0212,-0.021,-0.0207,-0.0205,-0.0134,0,0,0,0,0,0,0.0005,-0.0002,-0.0004,-0.0042,-0.0053,-0.0084,-0.0097,-0.0104,-0.012,-0.0122,-0.0156,-0.016,-0.0179,-0.0195,-0.0201,-0.0166,-0.0214,-0.0212,-0.0209,-0.0206,-0.0138,-0.0129,-0.0122,0,0,0,0,0,0.0008,0.0007,-0.0004,-0.001,-0.0054,-0.0084,-0.0091,-0.0115,-0.0121,-0.0127,-0.0143,-0.0159,-0.0181,-0.0197,-0.0204,-0.0169,-0.0213,-0.0209,-0.0206,-0.0141,-0.0131,-0.0122,0,0,0,0,0,0,0.004,0.0003,-0.001,-0.0021,-0.0049,-0.0088,-0.0096,-0.0113,-0.0133,-0.0131,-0.0159,-0.0165,-0.0158,-0.0177,-0.0193,-0.0157,-0.0192,-0.019,-0.014,-0.0131,-0.0123,-0.0088,-0.0216,0,0,0,0,0,0.0046,0.0034,-0.0004,-0.0012,-0.0025,-0.006,-0.0075,-0.0091,-0.0114,-0.0123,-0.0145,-0.0154,-0.0151,-0.0153,-0.0165,-0.0159,-0.0161,-0.0134,-0.0126,-0.0119,-0.0093,-0.0071,-0.0058,-0.0194,-0.0194,-0.0194,0,0,0.0058,0.0035,0.003,-0.0006,-0.0029,-0.0037,-0.0068,-0.0087,-0.008,-0.0125,-0.0123,-0.0138,-0.0145,-0.013,-0.0127,-0.0141,-0.0084,-0.0115,-0.0109,-0.0087,-0.0066,-0.0052,-0.0041,-0.0192,-0.0192,-0.0192,0,0,0.0074,0.0055,0.0047,0.0028,-0.0004,-0.002,-0.0023,-0.006,-0.0064,-0.0074,-0.0083,-0.0069,-0.0098,-0.0073,-0.0067,-0.0022,-0.0048,-0.003,0.0043,0.0064,0.0076,0.0086,0.0088,0.0098,-0.002,-0.002,-0.002,0,0.0091,0.0079,0.0042,0.0032,0.0033,-0.0007,-0.0,-0.0013,-0.0046,-0.0026,-0.0062,-0.0034,-0.0057,0.0013,0.0026,0.0,-0.0007,0.0004,0.0076,0.0086,0.0095,0.0094,0.0104,-0.0016,-0.0017,-0.0017,-0.0017,0,0.0097,0.0093,0.009,0.0072,0.0067,0.0065,0.0049,0.0052,0.0043,0.004,0.0086,0.0066,0.0097,0.0091,0.0064,0.0138,0.0104,0.0077,0.0052,0.0113,0.0108,0.0117,-0.0011,-0.0012,-0.0013,-0.0014,0,0,0.0128,0.0101,0.0102,0.0122,0.0094,0.0105,0.0121,0.0144,0.0199,0.0167,0.0242,0.0239,0.024,0.025,0.0236,0.0251,0.0289,0.0191,0.019,0.0195,0.0321,0.0267,0.0271,0.0265,0.0267,0.0269,0.0287,0,0.015,0.0156,0.0137,0.0179,0.0192,0.0185,0.0219,0.0241,0.0256,0.0314,0.0322,0.0373,0.0299,0.0332,0.0336,0.0306,0.0318,0.0286,0.0261,0.0261,0.0206,0.0282,0.0248,0.0259,0.0295,0.0297,0.0298,0,0.0164,0.0175,0.0204,0.0265,0.0275,0.0301,0.039,0.0415,0.0474,0.0492,0.0539,0.0533,0.0574,0.0495,0.0487,0.0464,0.0405,0.0368,0.0367,0.0304,0.0225,0.0206,0.0273,0.0093,0.0312,0.031,0.0309,0,0.0217,0.0241,0.0279,0.0288,0.033,0.0375,0.0417,0.0475,0.054,0.0619,0.0676,0.0701,0.0732,0.0675,0.0571,0.0534,0.0544,0.0486,0.039,0.0384,0.0348,0.0335,0.0244,0.0493,0.0493,0.0493,0.0493,0,0.0254,0.0299,0.0315,0.0341,0.0444,0.0447,0.0575,0.0615,0.0701,0.0802,0.0782,0.0864,0.0774,0.0753,0.0641,0.0547,0.0599,0.0431,0.0401,0.0368,0.0358,0.0191,0.0099,0.0493,0.0493,0.0493,0.0493,0,0.0307,0.03,0.037,0.043,0.0464,0.0544,0.0671,0.0771,0.082,0.0952,0.0982,0.1001,0.097,0.0866,0.0781,0.0646,0.045,0.0507,0.0463,0.0427,0.015,0.0064,-0.0031,-0.0124,0.0416,0.0415,0.0414,0,0.0337,0.0364,0.0444,0.0508,0.0543,0.0659,0.0752,0.083,0.0929,0.1036,0.111,0.1117,0.1149,0.1,0.0775,0.0602,0.0435,0.0428,0.0357,0.0156,0.0039,-0.0032,-0.0108,0.0332,0.033,0.0329,0.0328,0,0.0418,0.0431,0.0489,0.0598,0.0702,0.0826,0.0951,0.1043,0.1133,0.1225,0.132,0.1352,0.1208,0.1033,0.0775,0.0617,0.0276,0.0396,0.0217,0.0001,-0.0105,-0.0216,0.0277,0.0317,0.0318,0.0319,0.032,0.032,0.0494,0.0552,0.0609,0.0718,0.0825,0.0955,0.1062,0.1188,0.1325,0.1447,0.1471,0.1523,0.1247,0.0901,0.0654,0.0161,0.0195,0.0018,-0.0058,-0.0103,-0.0226,0.0232,0.0214,0.0214,0.0215,0.0215,0.0216,0,0.0588,0.064,0.0737,0.0854,0.0955,0.0999,0.1168,0.1264,0.1408,0.1532,0.1616,0.1517,0.1155,0.0746,0.0125,-0.0228,-0.0366,-0.0405,-0.0516,-0.0563,-0.0126,-0.0168,-0.0304,-0.0304,-0.0304,-0.0304,-0.0303,-0.0303,0.0655,0.0741,0.0769,0.0924,0.1007,0.1139,0.1226,0.1356,0.1463,0.1611,0.1653,0.1707,0.1437,0.0314,-0.0468,-0.0649,-0.0917,-0.0942,-0.1053,-0.0775,-0.0741,-0.071,-0.0772,-0.1032,-0.1033,-0.1474,-0.1479,-0.1482]}],[{"header":{"parameterUnit":"m.s-1","parameterCategory":2,"la1":30.2991,"la2":30.254,"lo1":-89.0895,"lo2":-89.0444,"dy":0.0017,"dx":0.0017,"nx":28,"ny":28,"refTime":"2023-03-30T21:00:00:Z","depth":"2","parameterNumber":2,"parameterNumberName":"U-component_of_CURRENTS"},"data":[0,0,0,0,0,0,0,0,0,0,0,0,0,0,0,0,0,0,0,0,0,0,0,0,0,0,0,0,0,0,0,0,0,0,0,0,0,0,0,0,0,0,0,0,0,0,0,0,0,0,0,0,0,0,0,0,0,0,0.1801,0.1801,0,0.1774,0.1773,0.1773,0.1756,0.1756,0.1756,0.1756,0.1716,0.1715,0.1714,0,0,0,0,0,0,0,0,0,0,0,0,0,0.1809,0.1809,0.1801,0.1801,0.1801,0.1774,0.1773,0.1772,0.1756,0.1756,0.1756,0.1756,0.1717,0.1715,0.1714,0,0,0,0,0,0,0,0,0,0,0,0,0,0.1793,0.1809,0.1801,0.1791,0.179,0.1774,0.1773,0.1772,0.1756,0.1756,0.1756,0.1756,0.1717,0.1715,0.1714,0.1698,0,0,0.1708,0.1707,0,0,0,0,0,0,0,0,0.1794,0.1793,0.1793,0.1792,0.1791,0.177,0.1761,0.1748,0.1755,0.1766,0.1756,0.1756,0.1735,0.1732,0.1722,0.1697,0.1695,0.1708,0.1707,0.1706,0.1706,0,0,0,0,0,0,0,0.1795,0.1794,0.1788,0.1792,0.1791,0.1778,0.1776,0.1758,0.1747,0.1765,0.1764,0.1765,0.1734,0.1724,0.1721,0.1694,0.1708,0.1707,0.1705,0.1705,0.1734,0.1736,0,0,0,0,0,0,0.1805,0.1795,0.1788,0.1787,0.1796,0.1778,0.1775,0.1775,0.1748,0.1745,0.1765,0.1765,0.1727,0.1724,0.172,0.1771,0.1706,0.1705,0.1704,0.1733,0.1735,0.1737,0,0,0,0,0,0,0.1806,0.1805,0.179,0.1792,0.179,0.1778,0.1777,0.1774,0.1773,0.1748,0.1745,0.1768,0.1727,0.1723,0.1716,0.1767,0.1704,0.1702,0.173,0.1733,0.1736,0.1829,0,0,0,0,0,0,0.1806,0.1805,0.1809,0.1793,0.179,0.1795,0.1777,0.1773,0.1774,0.1773,0.175,0.1746,0.1727,0.1719,0.1714,0.1764,0.1701,0.1728,0.1732,0.1735,0.1823,0.1834,0.1844,0,0,0,0,0,0.1806,0.1811,0.1809,0.1809,0.1796,0.1796,0.1793,0.1783,0.1774,0.1781,0.1763,0.1747,0.1739,0.1718,0.1712,0.1762,0.1726,0.1731,0.1735,0.1819,0.1832,0.1843,0,0,0,0,0,0,0.1808,0.1809,0.1807,0.181,0.1811,0.1794,0.1798,0.1789,0.1779,0.1777,0.175,0.1746,0.1771,0.1746,0.1723,0.1784,0.1738,0.1741,0.1804,0.1816,0.1827,0.1856,0.1699,0,0,0,0,0,0.1814,0.1821,0.1818,0.1821,0.1825,0.1812,0.1811,0.1806,0.1795,0.179,0.1773,0.1766,0.1782,0.178,0.178,0.1792,0.1822,0.1827,0.1838,0.1847,0.1869,0.1969,0.1991,0.1751,0.1751,0.1751,0,0,0.1812,0.1816,0.1817,0.1823,0.182,0.1832,0.1812,0.1816,0.1831,0.1787,0.1796,0.1798,0.1794,0.1824,0.1834,0.1807,0.1929,0.1852,0.1859,0.1877,0.1976,0.2,0.2021,0.1753,0.1753,0.1752,0,0,0.1816,0.1821,0.183,0.1839,0.1848,0.1847,0.1854,0.1846,0.1852,0.1855,0.1853,0.1888,0.1865,0.1903,0.1913,0.1978,0.1984,0.1973,0.2043,0.214,0.2162,0.2181,0.2245,0.2269,0.1973,0.1974,0.1974,0,0.1816,0.1823,0.1832,0.1848,0.186,0.1859,0.1876,0.1885,0.1876,0.1904,0.187,0.1927,0.1918,0.2005,0.2028,0.2007,0.2044,0.1995,0.2157,0.2176,0.2194,0.2255,0.2281,0.1979,0.1978,0.1978,0.1977,0,0.1825,0.1837,0.1845,0.1869,0.189,0.19,0.1925,0.1946,0.1948,0.1969,0.2042,0.2043,0.2089,0.2098,0.2074,0.2208,0.2188,0.2164,0.213,0.2225,0.2282,0.2307,0.1986,0.1984,0.1982,0.1981,0,0,0.1803,0.1843,0.1845,0.1863,0.1902,0.1916,0.1969,0.2024,0.2071,0.2092,0.2166,0.2218,0.2242,0.2258,0.2261,0.2333,0.2484,0.23,0.2303,0.2371,0.2686,0.2572,0.2588,0.2489,0.2494,0.2498,0.2673,0,0.1802,0.1832,0.186,0.1896,0.1915,0.1958,0.2007,0.2068,0.2114,0.2183,0.2252,0.2309,0.2299,0.2321,0.2412,0.2457,0.2555,0.2438,0.2578,0.2582,0.2476,0.2615,0.2331,0.2455,0.2697,0.2701,0.2704,0,0.1795,0.182,0.1853,0.1916,0.1931,0.1958,0.2056,0.2099,0.2222,0.2264,0.2374,0.2413,0.2545,0.2498,0.2696,0.2619,0.2679,0.2711,0.2718,0.26,0.2515,0.2399,0.2491,0.2746,0.2742,0.2739,0.2737,0,0.1765,0.1814,0.1841,0.1859,0.1932,0.1968,0.2011,0.2125,0.219,0.2321,0.2386,0.2541,0.2611,0.2733,0.2809,0.2768,0.3,0.295,0.292,0.2911,0.2692,0.2654,0.3127,0.3126,0.3126,0.3125,0.3125,0,0.1749,0.1769,0.1823,0.1834,0.1883,0.1945,0.2023,0.209,0.2217,0.2315,0.2426,0.2533,0.2675,0.281,0.2875,0.2978,0.3075,0.2976,0.2971,0.2711,0.2676,0.2933,0.2908,0.3132,0.3131,0.3129,0.3128,0,0.1714,0.1743,0.1773,0.1841,0.1864,0.1896,0.2009,0.2075,0.2191,0.2323,0.2368,0.2565,0.2739,0.2869,0.3054,0.3046,0.3148,0.3161,0.2826,0.2779,0.2978,0.2957,0.3164,0.3162,0.316,0.3159,0.3158,0,0.1698,0.1708,0.1764,0.1783,0.1809,0.1872,0.1925,0.2043,0.2128,0.2342,0.2409,0.2612,0.2767,0.2988,0.2977,0.3082,0.318,0.2871,0.2746,0.3019,0.2995,0.2975,0.2956,0.2496,0.2489,0.2484,0.248,0,0.1671,0.1685,0.1713,0.1755,0.1793,0.1853,0.1937,0.2007,0.2161,0.2283,0.2466,0.2601,0.2761,0.273,0.2815,0.2831,0.282,0.2763,0.319,0.2509,0.2398,0.237,0.2372,0.2432,0.2437,0.244,0.2443,0.2445,0.1649,0.1662,0.1696,0.1735,0.1776,0.1834,0.1889,0.2,0.213,0.2294,0.2427,0.2471,0.2465,0.2427,0.244,0.2405,0.2593,0.2478,0.2492,0.2512,0.2383,0.2272,0.2258,0.2262,0.2265,0.2268,0.227,0,0.1632,0.1654,0.1682,0.1734,0.1771,0.1797,0.1903,0.1962,0.2097,0.2132,0.2267,0.1974,0.199,0.2011,0.1868,0.191,0.1872,0.1872,0.1786,0.1833,0.1876,0.1711,0.1411,0.1409,0.1407,0.1405,0,0,0.1627,0.1644,0.1661,0.1712,0.175,0.1784,0.1834,0.1921,0.1922,0.1858,0.1731,0.1851,0.1831,0.1505,0.1544,0.1459,0.1628,0.1408,0.2085,0.2023,0.2062,0.2208,0.2006,0,0,0,0,0]},{"header":{"parameterUnit":"m.s-1","parameterCategory":2,"la1":30.2991,"la2":30.254,"lo1":-89.0895,"lo2":-89.0444,"dy":0.0017,"dx":0.0017,"nx":28,"ny":28,"refTime":"2023-03-30T21:00:00:Z","depth":"2","parameterNumber":3,"parameterNumberName":"V-component_of_CURRENTS"},"data":[0,0,0,0,0,0,0,0,0,0,0,0,0,0,0,0,0,0,0,0,0,0,0,0,0,0,0,0,0,0,0,0,0,0,0,0,0,0,0,0,0,0,0,0,0,0,0,0,0,0,0,0,0,0,0,0,0,0,-0.0132,-0.0133,0,-0.0198,-0.0199,-0.0199,-0.0224,-0.0224,-0.0223,-0.0223,-0.0275,-0.0276,-0.0278,0,0,0,0,0,0,0,0,0,0,0,0,0,-0.0061,-0.0062,-0.0132,-0.0133,-0.0134,-0.0198,-0.0199,-0.02,-0.0224,-0.0224,-0.0223,-0.0223,-0.0274,-0.0276,-0.0278,0,0,0,0,0,0,0,0,0,0,0,0,0,-0.0107,-0.0063,-0.0132,-0.0153,-0.0156,-0.0197,-0.0199,-0.02,-0.0224,-0.0224,-0.0223,-0.0223,-0.0273,-0.0276,-0.0278,-0.0301,0,0,-0.0286,-0.0287,0,0,0,0,0,0,0,0,-0.0104,-0.0109,-0.0149,-0.0152,-0.0154,-0.0202,-0.0192,-0.0233,-0.0224,-0.0199,-0.0223,-0.0223,-0.0249,-0.0253,-0.0268,-0.0304,-0.0306,-0.0286,-0.0287,-0.0288,-0.0289,0,0,0,0,0,0,0,-0.0101,-0.0107,-0.0159,-0.015,-0.0153,-0.017,-0.0176,-0.0201,-0.0226,-0.0201,-0.0203,-0.0209,-0.025,-0.0265,-0.0269,-0.0307,-0.0286,-0.0288,-0.029,-0.029,-0.0297,-0.0296,0,0,0,0,0,0,-0.009,-0.0104,-0.0157,-0.0161,-0.0127,-0.0172,-0.0178,-0.0188,-0.0226,-0.0231,-0.0209,-0.021,-0.0261,-0.0266,-0.0271,-0.0246,-0.0288,-0.0291,-0.0292,-0.0299,-0.0297,-0.0296,0,0,0,0,0,0,-0.0088,-0.0094,-0.0154,-0.0133,-0.0142,-0.0173,-0.0184,-0.0189,-0.0201,-0.0232,-0.0237,-0.0214,-0.0261,-0.0267,-0.0283,-0.025,-0.0292,-0.0294,-0.03,-0.0298,-0.0296,-0.0231,0,0,0,0,0,0,-0.0086,-0.0093,-0.0095,-0.0132,-0.0142,-0.0173,-0.0184,-0.0191,-0.0205,-0.0206,-0.0238,-0.0243,-0.0261,-0.0279,-0.0286,-0.0254,-0.0296,-0.0302,-0.0299,-0.0297,-0.0234,-0.0227,-0.022,0,0,0,0,0,-0.0083,-0.0084,-0.0095,-0.0101,-0.0144,-0.0173,-0.018,-0.0202,-0.0205,-0.021,-0.0227,-0.0242,-0.0267,-0.0281,-0.0289,-0.0257,-0.0303,-0.03,-0.0297,-0.0238,-0.0228,-0.022,0,0,0,0,0,0,-0.005,-0.0088,-0.01,-0.0111,-0.0138,-0.0177,-0.0182,-0.0199,-0.0218,-0.0215,-0.0243,-0.0249,-0.0246,-0.0264,-0.0278,-0.0249,-0.0281,-0.0279,-0.0233,-0.0224,-0.0217,-0.0184,-0.0298,0,0,0,0,0,-0.0045,-0.0056,-0.0095,-0.0102,-0.0114,-0.0148,-0.0162,-0.0177,-0.02,-0.0208,-0.023,-0.024,-0.0241,-0.0244,-0.0258,-0.0254,-0.0267,-0.0232,-0.0225,-0.0219,-0.0195,-0.0177,-0.0165,-0.0286,-0.0286,-0.0286,0,0,-0.0033,-0.0055,-0.0061,-0.0096,-0.0118,-0.0126,-0.0155,-0.0172,-0.0168,-0.0211,-0.021,-0.0226,-0.0237,-0.0226,-0.0224,-0.0236,-0.0199,-0.0215,-0.021,-0.0189,-0.0172,-0.016,-0.015,-0.0284,-0.0285,-0.0285,0,0,-0.0016,-0.0035,-0.0042,-0.006,-0.0091,-0.0108,-0.011,-0.0147,-0.015,-0.0162,-0.0174,-0.0165,-0.0193,-0.0176,-0.0173,-0.0134,-0.0166,-0.014,-0.0073,-0.0055,-0.0045,-0.0036,-0.0072,-0.0066,-0.013,-0.013,-0.013,0,0.0002,-0.0012,-0.0047,-0.0056,-0.0057,-0.0095,-0.009,-0.0103,-0.0136,-0.012,-0.015,-0.0134,-0.0157,-0.0103,-0.009,-0.0115,-0.0132,-0.0107,-0.0045,-0.0036,-0.0028,-0.0066,-0.0061,-0.0127,-0.0127,-0.0127,-0.0128,0,0.0008,0.0004,0.0002,-0.0017,-0.0024,-0.0026,-0.0045,-0.0045,-0.0054,-0.0057,-0.0022,-0.0046,-0.0022,-0.0029,-0.0054,0.001,-0.0034,-0.0045,-0.0066,-0.0012,-0.0057,-0.0052,-0.0121,-0.0123,-0.0124,-0.0125,0,0,0.0042,0.0013,0.0015,0.0031,0.0002,0.001,0.0019,0.0035,0.0082,0.0051,0.0112,0.0106,0.0107,0.0113,0.0097,0.0109,0.0125,0.006,0.0059,0.0025,0.0125,-0.0132,-0.0153,0.0124,0.0126,0.0127,0.0057,0,0.0064,0.0067,0.0047,0.0083,0.0091,0.008,0.0105,0.0121,0.0133,0.0179,0.0179,0.0225,0.0159,0.019,0.0189,0.0152,0.0146,0.0143,0.0078,0.0075,-0.0158,-0.0152,0.0003,-0.0066,0.0061,0.0062,0.0062,0,0.0079,0.0086,0.0108,0.0157,0.0164,0.0187,0.0258,0.0278,0.0323,0.0339,0.0377,0.0371,0.0396,0.0334,0.0294,0.0292,0.0219,0.0173,0.0169,-0.0083,-0.0173,-0.0092,-0.0063,0.0069,0.0068,0.0068,0.0067,0,0.0129,0.0146,0.0177,0.0184,0.0214,0.0253,0.0287,0.0334,0.0388,0.0459,0.0509,0.0518,0.0541,0.0471,0.0319,0.0333,0.0236,0.0248,-0.0053,-0.0073,0.0039,0.0022,0.0228,0.0228,0.0228,0.0228,0.0228,0,0.0164,0.0204,0.0211,0.0234,0.0323,0.0322,0.0434,0.0468,0.0536,0.0618,0.061,0.0658,0.058,0.0495,0.0362,0.0117,0.0261,-0.0049,-0.0104,0.0054,0.004,0.0154,0.0146,0.0226,0.0226,0.0227,0.0227,0,0.0216,0.0207,0.0266,0.0313,0.0343,0.0414,0.0522,0.0611,0.0652,0.0758,0.0788,0.0781,0.0638,0.0473,0.0334,0.0152,-0.0036,-0.0158,-0.0024,-0.0068,-0.0355,-0.0358,-0.045,-0.0459,-0.0467,-0.0474,-0.048,0,0.0244,0.0266,0.0332,0.0391,0.0423,0.0524,0.0607,0.067,0.0736,0.0814,0.0854,0.0769,0.0614,0.0247,0.005,-0.0259,-0.0267,-0.0399,-0.0361,-0.0378,-0.0421,-0.0411,-0.0404,-0.0162,-0.0165,-0.0167,-0.0169,0,0.0316,0.0328,0.0375,0.0475,0.0572,0.0675,0.0767,0.0797,0.0861,0.0892,0.0863,0.0738,0.0467,0.0187,-0.0261,-0.0421,-0.0346,-0.0469,-0.0433,-0.0091,-0.0134,-0.0169,-0.0164,-0.0188,-0.0186,-0.0184,-0.0183,-0.0183,0.0382,0.0435,0.0483,0.058,0.0682,0.0749,0.0775,0.0814,0.0826,0.0762,0.0754,0.0598,0.0442,-0.0138,-0.0387,-0.0564,-0.0577,-0.0637,-0.0615,-0.0594,-0.0625,-0.0688,-0.0851,-0.0853,-0.0855,-0.0856,-0.0857,0,0.0465,0.0514,0.0598,0.0669,0.0725,0.0801,0.0837,0.0765,0.0672,0.0696,0.0569,0.0419,0.0083,-0.0099,-0.0341,-0.0631,-0.0465,-0.0738,-0.0399,-0.0382,-0.0366,-0.037,-0.0536,-0.0536,-0.0536,-0.0537,0,0,0.0523,0.0595,0.0614,0.0671,0.0723,0.0768,0.0752,0.0587,0.0548,0.044,0.0456,0.0329,0.0176,0.0037,-0.0225,-0.0371,-0.033,-0.0406,-0.0631,-0.0182,-0.0163,-0.0278,-0.0269,0,0,0,0,0]}],[{"header":{"parameterUnit":"m.s-1","parameterCategory":2,"la1":30.2991,"la2":30.254,"lo1":-89.0895,"lo2":-89.0444,"dy":0.0017,"dx":0.0017,"nx":28,"ny":28,"refTime":"2023-03-30T21:00:00:Z","depth":"4","parameterNumber":2,"parameterNumberName":"U-component_of_CURRENTS"},"data":[0,0,0,0,0,0,0,0,0,0,0,0,0,0,0,0,0,0,0,0,0,0,0,0,0,0,0,0,0,0,0,0,0,0,0,0,0,0,0,0,0,0,0,0,0,0,0,0,0,0,0,0,0,0,0,0,0,0,0.0973,0.0973,0,0.0996,0.0996,0.0997,0.1027,0.1027,0.1028,0.1028,0.1044,0.1044,0.1044,0,0,0,0,0,0,0,0,0,0,0,0,0,0.0925,0.0926,0.0973,0.0973,0.0973,0.0996,0.0996,0.0997,0.1026,0.1027,0.1028,0.1028,0.1044,0.1044,0.1044,0,0,0,0,0,0,0,0,0,0,0,0,0,0.0946,0.0926,0.0973,0.0992,0.0993,0.0996,0.0996,0.0997,0.1026,0.1027,0.1028,0.1029,0.1044,0.1044,0.1044,0.1027,0,0,0.1044,0.1044,0,0,0,0,0,0,0,0,0.0945,0.0948,0.0988,0.099,0.0992,0.101,0.0986,0.1007,0.1026,0.1013,0.1028,0.1029,0.1032,0.1033,0.1035,0.1028,0.1029,0.1044,0.1044,0.1044,0.1044,0,0,0,0,0,0,0,0.0944,0.0947,0.0981,0.0989,0.0991,0.0989,0.0993,0.099,0.1017,0.1014,0.1017,0.102,0.1033,0.1035,0.1035,0.1029,0.1044,0.1044,0.1044,0.1044,0.1096,0.1097,0,0,0,0,0,0,0.0943,0.0946,0.0981,0.0982,0.0971,0.0989,0.0994,0.1003,0.1017,0.1021,0.1019,0.1021,0.1035,0.1035,0.1036,0.11,0.1044,0.1044,0.1044,0.1094,0.1096,0.1098,0,0,0,0,0,0,0.0942,0.0946,0.098,0.0965,0.0969,0.099,0.0999,0.1003,0.1035,0.1021,0.1025,0.1051,0.1035,0.1036,0.1059,0.1098,0.1044,0.1043,0.1093,0.1095,0.1097,0.1175,0,0,0,0,0,0,0.094,0.0945,0.0961,0.0965,0.097,0.1001,0.0999,0.1003,0.1034,0.1038,0.1049,0.105,0.1036,0.1059,0.1059,0.1097,0.1043,0.1091,0.1094,0.1096,0.1171,0.118,0.1188,0,0,0,0,0,0.0939,0.0952,0.0961,0.0966,0.0987,0.1002,0.1005,0.1021,0.1035,0.1053,0.1063,0.1051,0.1077,0.106,0.1059,0.1098,0.1089,0.1093,0.1096,0.1167,0.1178,0.1187,0,0,0,0,0,0,0.0941,0.0956,0.0967,0.0986,0.1003,0.1008,0.1027,0.1039,0.1061,0.1071,0.1063,0.1064,0.1097,0.1086,0.1068,0.1122,0.1084,0.1087,0.1138,0.1148,0.1157,0.1176,0.1043,0,0,0,0,0,0.0947,0.0964,0.0977,0.0997,0.1009,0.1025,0.1038,0.105,0.1064,0.1076,0.1082,0.1092,0.1104,0.1119,0.1117,0.1146,0.1126,0.1172,0.118,0.1188,0.1203,0.1194,0.1203,0.1108,0.1108,0.1108,0,0,0.0955,0.0965,0.0976,0.0999,0.1016,0.1036,0.1036,0.1065,0.1091,0.1072,0.1115,0.1117,0.1116,0.1147,0.1163,0.1149,0.1206,0.1192,0.1198,0.121,0.1198,0.1207,0.1215,0.1111,0.111,0.111,0,0,0.0968,0.099,0.1007,0.1024,0.1052,0.1061,0.1078,0.11,0.1125,0.1158,0.1155,0.1186,0.12,0.1212,0.122,0.1275,0.1243,0.1278,0.1345,0.1337,0.1344,0.135,0.1341,0.1346,0.1291,0.1291,0.1291,0,0.0976,0.1002,0.1016,0.1036,0.1056,0.1079,0.1106,0.113,0.1157,0.1173,0.1184,0.1215,0.1234,0.1265,0.131,0.1296,0.1281,0.1307,0.1347,0.1353,0.1358,0.1347,0.1351,0.1295,0.1295,0.1294,0.1294,0,0.0998,0.1027,0.1042,0.1076,0.1098,0.1127,0.1157,0.1192,0.1226,0.1235,0.1277,0.1297,0.1326,0.1338,0.1359,0.1409,0.1383,0.135,0.1321,0.1372,0.1357,0.136,0.1301,0.1299,0.1298,0.1297,0,0,0.0992,0.1047,0.1055,0.1082,0.1125,0.1145,0.1197,0.1236,0.1275,0.13,0.1343,0.1396,0.1414,0.1427,0.1441,0.1456,0.1512,0.1448,0.1445,0.1437,0.1493,0.1407,0.1401,0.1482,0.1483,0.1484,0.1468,0,0.1011,0.106,0.1079,0.1133,0.1165,0.12,0.125,0.1286,0.1322,0.1365,0.1385,0.1444,0.1443,0.1501,0.1506,0.1519,0.1524,0.1519,0.1446,0.1444,0.1359,0.1403,0.1487,0.147,0.1471,0.1472,0.1472,0,0.1022,0.1059,0.1115,0.1179,0.1198,0.1235,0.1313,0.1355,0.1406,0.1437,0.1468,0.1504,0.1574,0.1564,0.1572,0.157,0.1558,0.1538,0.1535,0.1431,0.1363,0.1407,0.1477,0.1476,0.1476,0.1476,0.1475,0,0.1013,0.1078,0.1129,0.115,0.1226,0.127,0.1319,0.1378,0.14,0.1505,0.1526,0.1583,0.1633,0.1623,0.1648,0.1626,0.1621,0.1569,0.1452,0.1445,0.1492,0.1485,0.1554,0.1554,0.1554,0.1554,0.1554,0,0.101,0.1051,0.1139,0.1165,0.1232,0.129,0.1335,0.1408,0.146,0.1468,0.1572,0.1585,0.1656,0.1672,0.1661,0.1579,0.1631,0.1476,0.1439,0.1525,0.1523,0.1494,0.1487,0.1553,0.1553,0.1553,0.1554,0,0.0977,0.1036,0.1096,0.1195,0.1225,0.1277,0.1322,0.1336,0.1428,0.1447,0.1504,0.1598,0.1617,0.1643,0.1649,0.1584,0.154,0.1492,0.1612,0.158,0.1358,0.1356,0.134,0.1337,0.1334,0.1332,0.133,0,0.0961,0.0992,0.1099,0.112,0.1164,0.1219,0.1233,0.1318,0.1306,0.1419,0.1409,0.1507,0.1545,0.1442,0.1511,0.1474,0.1441,0.1445,0.1381,0.1373,0.1339,0.134,0.1342,0.1326,0.1325,0.1324,0.1324,0,0.0921,0.097,0.1009,0.1059,0.1088,0.1079,0.1111,0.1084,0.1168,0.1278,0.1278,0.1329,0.1317,0.1338,0.135,0.1316,0.147,0.1416,0.142,0.1359,0.1355,0.1325,0.1329,0.1315,0.1316,0.1317,0.1317,0,0.0878,0.0889,0.0937,0.097,0.0989,0.0929,0.0945,0.0919,0.0929,0.1067,0.1073,0.1157,0.1275,0.1253,0.1259,0.1244,0.1186,0.116,0.1176,0.1187,0.1153,0.1127,0.0992,0,0,0,0,0,0.0831,0.0819,0.0833,0.083,0.0834,0.0848,0.0852,0.0858,0.0951,0.0904,0.0977,0.0977,0.1012,0.1069,0.1006,0.1172,0.1188,0.1102,0.1164,0.1264,0.1275,0.1254,0,0,0,0,0,0,0.0782,0.0796,0.0799,0.0705,0.0676,0.0639,0.0639,0.0694,0.0646,0.0781,0.077,0.0939,0.0944,0.1019,0.0996,0.1016,0.1037,0.118,0.1178,0.1258,0.1268,0.1276,0.1259,0,0,0,0,0]},{"header":{"parameterUnit":"m.s-1","parameterCategory":2,"la1":30.2991,"la2":30.254,"lo1":-89.0895,"lo2":-89.0444,"dy":0.0017,"dx":0.0017,"nx":28,"ny":28,"refTime":"2023-03-30T21:00:00:Z","depth":"4","parameterNumber":3,"parameterNumberName":"V-component_of_CURRENTS"},"data":[0,0,0,0,0,0,0,0,0,0,0,0,0,0,0,0,0,0,0,0,0,0,0,0,0,0,0,0,0,0,0,0,0,0,0,0,0,0,0,0,0,0,0,0,0,0,0,0,0,0,0,0,0,0,0,0,0,0,-0.0319,-0.032,0,-0.037,-0.0371,-0.0372,-0.0405,-0.0405,-0.0406,-0.0406,-0.0472,-0.0473,-0.0475,0,0,0,0,0,0,0,0,0,0,0,0,0,-0.026,-0.0261,-0.0319,-0.032,-0.0321,-0.037,-0.0371,-0.0372,-0.0405,-0.0405,-0.0406,-0.0406,-0.0471,-0.0473,-0.0475,0,0,0,0,0,0,0,0,0,0,0,0,0,-0.0296,-0.0261,-0.0319,-0.0343,-0.0346,-0.037,-0.0371,-0.0372,-0.0405,-0.0405,-0.0406,-0.0406,-0.0471,-0.0473,-0.0475,-0.0484,0,0,-0.0483,-0.0484,0,0,0,0,0,0,0,0,-0.0294,-0.0298,-0.0339,-0.0341,-0.0344,-0.0381,-0.0374,-0.041,-0.0405,-0.0383,-0.0406,-0.0406,-0.0442,-0.0447,-0.0456,-0.0488,-0.049,-0.0483,-0.0484,-0.0485,-0.0486,0,0,0,0,0,0,0,-0.0291,-0.0296,-0.034,-0.0339,-0.0343,-0.0354,-0.0359,-0.0381,-0.0411,-0.0385,-0.0387,-0.0392,-0.0444,-0.0454,-0.0458,-0.0491,-0.0483,-0.0485,-0.0486,-0.0487,-0.0604,-0.0606,0,0,0,0,0,0,-0.0284,-0.0294,-0.0338,-0.0341,-0.0319,-0.0355,-0.0361,-0.0369,-0.0411,-0.0417,-0.0392,-0.0394,-0.045,-0.0455,-0.0461,-0.0506,-0.0485,-0.0487,-0.0489,-0.0603,-0.0605,-0.0606,0,0,0,0,0,0,-0.0282,-0.0287,-0.0336,-0.0318,-0.0325,-0.0355,-0.0365,-0.037,-0.0387,-0.0416,-0.0422,-0.0404,-0.045,-0.0457,-0.0496,-0.0508,-0.0489,-0.0491,-0.0601,-0.0603,-0.0605,-0.0576,0,0,0,0,0,0,-0.028,-0.0286,-0.0294,-0.0318,-0.0326,-0.0353,-0.0365,-0.0371,-0.0389,-0.0392,-0.0428,-0.0434,-0.0451,-0.0493,-0.0499,-0.0511,-0.0493,-0.0598,-0.0602,-0.0605,-0.0575,-0.0577,-0.0579,0,0,0,0,0,-0.0278,-0.0285,-0.0294,-0.0299,-0.0334,-0.0353,-0.0359,-0.0381,-0.0389,-0.0397,-0.043,-0.0433,-0.0517,-0.0496,-0.0502,-0.0515,-0.0597,-0.0601,-0.0604,-0.0574,-0.0577,-0.0579,0,0,0,0,0,0,-0.0263,-0.029,-0.03,-0.0316,-0.0334,-0.0359,-0.0369,-0.0383,-0.0414,-0.0419,-0.0447,-0.0456,-0.0498,-0.0517,-0.0492,-0.0564,-0.0561,-0.0566,-0.0536,-0.0539,-0.0541,-0.0539,-0.0495,0,0,0,0,0,-0.0263,-0.0276,-0.03,-0.0312,-0.0321,-0.0345,-0.0357,-0.0371,-0.0399,-0.0412,-0.0441,-0.0479,-0.0518,-0.0535,-0.0571,-0.06,-0.0634,-0.0619,-0.0621,-0.0623,-0.063,-0.0763,-0.0777,-0.0619,-0.0619,-0.0619,0,0,-0.026,-0.0276,-0.0284,-0.031,-0.0326,-0.0338,-0.0353,-0.037,-0.0387,-0.0415,-0.0452,-0.0486,-0.0531,-0.057,-0.0591,-0.0585,-0.0665,-0.0627,-0.0628,-0.0635,-0.0768,-0.0784,-0.0798,-0.0621,-0.0621,-0.062,0,0,-0.0253,-0.0275,-0.028,-0.0297,-0.032,-0.0335,-0.034,-0.037,-0.0391,-0.0428,-0.046,-0.0506,-0.0555,-0.0592,-0.0617,-0.0656,-0.0678,-0.0667,-0.0668,-0.0796,-0.081,-0.0823,-0.0791,-0.0802,-0.0663,-0.0663,-0.0663,0,-0.0246,-0.0261,-0.0284,-0.0294,-0.0308,-0.0333,-0.0341,-0.0366,-0.0407,-0.0433,-0.044,-0.0546,-0.0571,-0.0634,-0.0643,-0.0659,-0.0692,-0.0645,-0.0799,-0.0813,-0.0827,-0.0792,-0.0804,-0.0662,-0.0662,-0.0662,-0.0662,0,-0.0242,-0.0258,-0.0263,-0.0284,-0.0302,-0.0314,-0.0348,-0.0371,-0.04,-0.0435,-0.0509,-0.0559,-0.0622,-0.0637,-0.0646,-0.0748,-0.0719,-0.0788,-0.0785,-0.0841,-0.0799,-0.0812,-0.0661,-0.0661,-0.0661,-0.0661,0,0,-0.0215,-0.0252,-0.0253,-0.0268,-0.03,-0.0315,-0.0343,-0.0384,-0.0417,-0.0471,-0.0538,-0.0596,-0.0631,-0.0663,-0.0692,-0.0788,-0.0867,-0.0821,-0.0829,-0.0772,-0.1049,-0.0851,-0.0846,-0.0986,-0.0991,-0.0995,-0.0943,0,-0.0203,-0.0217,-0.0242,-0.0262,-0.0275,-0.0311,-0.0339,-0.0382,-0.0431,-0.0503,-0.0576,-0.0654,-0.064,-0.0683,-0.0771,-0.0871,-0.0918,-0.0867,-0.1018,-0.1019,-0.0829,-0.0863,-0.1009,-0.0954,-0.0957,-0.0959,-0.0961,0,-0.0189,-0.0204,-0.0216,-0.0262,-0.0271,-0.0286,-0.0342,-0.0374,-0.0469,-0.0517,-0.0598,-0.0671,-0.0768,-0.0795,-0.0943,-0.0919,-0.097,-0.1035,-0.1038,-0.0884,-0.0851,-0.0915,-0.0985,-0.0983,-0.0981,-0.098,-0.0978,0,-0.016,-0.019,-0.02,-0.0215,-0.0263,-0.0279,-0.0306,-0.0376,-0.0415,-0.0542,-0.058,-0.0723,-0.0769,-0.093,-0.0963,-0.1009,-0.1115,-0.1208,-0.1049,-0.1029,-0.1233,-0.1222,-0.1338,-0.1338,-0.1338,-0.1338,-0.1338,0,-0.0146,-0.016,-0.0187,-0.0198,-0.0228,-0.0259,-0.0308,-0.0355,-0.043,-0.0451,-0.0581,-0.0583,-0.0827,-0.0881,-0.098,-0.0975,-0.1113,-0.1034,-0.1035,-0.1204,-0.1191,-0.1235,-0.1224,-0.1336,-0.1336,-0.1337,-0.1337,0,-0.0133,-0.0143,-0.0167,-0.0204,-0.0219,-0.0243,-0.0302,-0.0333,-0.0381,-0.0412,-0.0454,-0.0515,-0.0547,-0.0686,-0.088,-0.0917,-0.101,-0.0967,-0.0991,-0.0996,-0.0833,-0.0821,-0.0859,-0.0853,-0.0847,-0.0842,-0.0838,0,-0.0138,-0.0142,-0.0176,-0.0195,-0.0216,-0.0253,-0.0277,-0.0325,-0.0317,-0.0303,-0.0283,-0.0316,-0.0348,-0.0392,-0.058,-0.0726,-0.0749,-0.0791,-0.0958,-0.0802,-0.08,-0.0797,-0.0793,-0.0829,-0.0828,-0.0826,-0.0825,0,-0.0163,-0.0166,-0.0191,-0.0208,-0.0228,-0.0233,-0.0229,-0.0193,-0.0184,-0.0259,-0.0111,-0.0153,-0.0126,-0.0254,-0.0318,-0.0448,-0.0808,-0.0734,-0.0751,-0.091,-0.0766,-0.0769,-0.0772,-0.0805,-0.0808,-0.081,-0.0811,0,-0.0198,-0.0217,-0.0228,-0.0237,-0.0242,-0.0148,-0.0157,-0.0075,-0.0056,-0.0007,0.007,0.005,-0.001,-0.0092,-0.0159,-0.0257,-0.0351,-0.047,-0.0503,-0.0527,-0.0464,-0.0236,-0.0105,0,0,0,0,0,-0.0236,-0.0246,-0.0259,-0.0227,-0.02,-0.017,-0.0098,-0.0077,-0.0029,0.0094,0.0088,0.0128,0.0073,0.0053,-0.0008,-0.0106,-0.0394,-0.0186,-0.0555,-0.0696,-0.0719,-0.0689,0,0,0,0,0,0,-0.0276,-0.0295,-0.0266,-0.0183,-0.0139,-0.0073,0.0009,0.0055,0.0151,0.0171,0.0165,0.0081,0.0037,0.0103,-0.002,-0.005,-0.0297,-0.0247,-0.0249,-0.0683,-0.0704,-0.0722,-0.0699,0,0,0,0,0]}]]